Вернуться в каталог

YAOGAN-34 02

АктивенВоенныеLEO
NORAD 52084·PAYLOAD·🇨🇳 China

Запущен Mar 17, 2022 с Jiuquan Satellite Launch Center

Loading…

Ближайшие Пролёты (ближайшие 24 часа)

TLE

СвежийSource: Space-Track

Эпоха: Sep 14, 2026, 22:57 UTC

1 52084U 22027A   26257.95693067 -.00000088  00000-0  39654-5 0  9998
2 52084  63.3972 330.4821 0059791 354.9412   5.1003 13.45440273220995

Отслеживайте YAOGAN-34 02 в реальном времени с AllMySat

Download on the App Store